Location: Hermaringen
(48.5952°N, 10.2585°E)
Time: 19:29:48
(UTC+00:00)

Altair - Pass Details

Date: 19 February 2026
Orbit: 1502 x 1682 km, 47.2° (Epoch: 10 March)

Event Time Altitude Azimuth Distance (km) Brightness Sun altitude
Rises 04:36:04 0° 242° (WSW) 4,631 - -17.8°
Reaches altitude 10° 04:39:04 10° 240° (WSW) 3,659 - -17.3°
Exits shadow 04:40:43 17° 238° (WSW) 3,142 8.6 -17.0°
Maximum altitude 04:48:11 69° 160° (SSE) 1,621 7.7 -15.8°
Drops below altitude 10° 04:57:36 10° 79° (E) 3,773 10.9 -14.2°
Sets 05:00:45 0° 78° (ENE) 4,783 11.8 -13.7°
